Probability
0 0 0 0 0 0 0 0 0 0 0 0 0 0 0 0 0 0 0 0 0 0 0 0 0 0 0 0 0 0 0 0 0 0 0 0 0 0 0 0 0 0 0
0 0 0 0 0 0 0 0 0 0 0 0 0 0 0 0 0 0 0 0 0 0 0 0 0 0 0 0 0 0 0 0 0 0 0 0 0 0 0 0 0 0 0
0 0 0 0 0 0 0 0 0 0 0 0 0 0 0 0 0 0 0 0 0 0 0 0 0 0 0 0 0 0 0 0 0 0 0 0 0 0 0 0 0 0 0
0 0 0 0 0 0 0 0 0 0 0 0 0 0 0 0 0 0 0 0 0 0 0 0 0 0 0 0 0 0 0 0 0 0 0 0 0 0 0 0 0 0 0
0 0 0 0 0 0 0 0 0 0 0 0 0 0 0 0 0 0 0 0 0 0 0 0 0 0 0 0 0 0 0 0 0 0 0 0 0 0 0 0 0 0 0
0 0 0 0 0 0 0 0 0 0 0 0 0 0 0 0 0 0 0 0 0 0 0 0 0 0 0 0 0 0 0 0 0 0 0 0 0 0 0 0 0 0 0
0 0 0 0 0 0 0 0 0 0 0 0 0 0 0 0 0 0 0 0 0 0 0 0 0 0 0 0 0 0 0 0 0 0 0 0 0 0 0 0 0 0 0
0 0 0 0 0 0 0 0 0 0 0 0 0 0 0 0 0 0 0 0 0 0 0 0 0 0 0 0 0 0 0 0 0 0 0 0 0 0 0 0 0 0 0
0 0 0 0 0 0 0 0 0 0 0 0 0 0 0 0 0 0 0 0 0 0 0 0 0 0 0 0 0 0 0 0 0 0 0 0 0 0 0 0 0 0 0
0 0 0 0 0 0 0 0 0 0 0 0 0 0 0 0 0 0 0 0 0 0 0 0 0 0 0 0 0 0 0 0 0 0 0 0 0 0 0 0 0 0 0
0 0 0 0 0 0 0 0 0 0 0 0 0 0 0 0 0 0 0 0 0 0 0 0 0 0 0 0 0 0 0 0 0 0 0 0 0 0 0 0 0 0 0
0 0 0 0 0 0 0 0 0 0 0 0 0 0 0 0 0 0 0 0 0 0 0 0 0 0 0 0 0 0 0 0 0 0 0 0 0 0 0 0 0 0 0
0 0 0 0 0 0 0 0 0 0 0 0 0 0 0 0 0 0 0 0 0 0 0 0 0 0 0 0 0 0 0 0 0 0 0 0 0 0 0 0 0 0 0
0 0 0 0 0 0 0 0 0 0 0 0 0 0 0 0 0 0 0 0 0 0 0 0 0 0 0 0 0 0 0 0 0 0 0 0 0 0 0 0 0 0 0
0 0 0 0 0 0 0 0 0 0 0 0 0 0 0 0 0 0 0 0 0 0 0 0 0 0 0 0 0 0 0 0 0 0 0 0 0 0 0 0 0 0 0
0 0 0 0 0 0 0 0 0 0 0 0 0 0 0 0 0 0 0 0 0 0 0 0 0 0 0 0 0 0 0 0 0 0 0 0 0 0 0 0 0 0 0
0 0 0 0 0 0 0 0 0 0 0 0 0 0 0 0 0 0 0 0 0 0 0 0 0 0 0 0 0 0 0 0 0 0 0 0 0 0 0 0 0 0 0
0 0 1 1 1 0 0 0 0 0 0 0 0 0 0 0 0 0 0 0 0 0 0 0 0 0 0 0 0 0 0 0 0 0 0 0 0 0 0 0 0 0 0
0 1 2 2 2 1 0 0 0 0 0 0 0 0 0 0 0 0 0 0 0 0 0 0 0 0 0 0 0 0 0 0 0 0 0 0 0 0 0 0 0 0 0
1 2 3 3 2 1 0 0 0 0 0 0 0 0 0 0 0 0 0 0 0 0 0 0 0 0 0 0 0 0 0 0 0 0 0 0 0 0 0 0 0 0 0
1 2 3 2 1 0 0 0 0 0 0 0 0 0 0 0 0 0 0 0 0 0 0 0 0 0 0 0 0 0 0 0 0 0 0 0 0 0 0 0 0 0 0
2 3 3 2 0 0 0 0 0 0 0 0 0 0 0 0 0 0 0 0 0 0 0 0 0 0 0 0 0 0 0 0 0 0 0 0 0 0 0 0 0 0 0
2 3 3 2 1 0 0 0 0 0 0 0 0 0 0 0 0 0 0 0 0 0 0 0 0 0 0 0 0 0 0 0 0 0 0 0 0 0 0 0 0 0 0
1 2 2 2 1 0 0 0 0 0 0 0 0 0 0 0 0 0 0 0 0 0 0 0 0 0 0 0 0 0 0 0 0 0 0 0 0 0 0 0 0 0 0
0 1 1 1 0 0 0 0 0 0 0 0 0 0 0 0 0 0 0 0 0 0 0 0 0 0 0 0 0 0 0 0 0 0 0 0 0 0 0 0 0 0 0
0 0 0 0 0 0 0 0 0 0 0 0 0 0 0 0 0 0 0 0 0 0 0 0 0 0 0 0 0 0 0 0 0 0 0 0 0 0 0 0 0 0 0
Wind_Speed
5 5 6 6 6 6 6 6 5 4 4 3 3 3 2 1 2 2 3 4 4 4 4 3 3 3 3 3 3 2 4 3 2 3 3 4 4 4 3 3 3 3 3
5 5 5 5 5 6 6 5 5 4 3 3 2 2 2 1 1 2 3 4 4 4 3 3 2 3 3 4 4 3 2 3 3 2 2 3 5 4 4 3 3 3 3
9 7 6 5 6 6 6 5 4 4 4 4 3 3 3 3 3 3 2 3 4 4 4 3 3 3 3 2 3 2 3 2 3 2 3 2 0 2 3 4 3 3 2
8 7 6 6 6 6 6 5 4 4 4 5 5 5 3 2 1 0 1 2 3 3 3 4 4 3 3 2 2 3 2 2 2 2 2 1 2 2 1 3 3 3 3
10 9 8 7 6 6 6 5 5 4 4 5 5 5 3 2 1 1 2 2 3 4 3 3 4 4 3 3 3 3 3 2 2 1 1 2 2 2 2 1 3 3 3
9 8 7 7 5 5 5 5 5 4 4 4 5 5 5 4 3 2 2 2 2 3 4 3 4 3 3 3 3 3 4 3 3 2 2 2 1 1 1 1 1 2 3
10 9 9 8 7 6 5 5 5 4 4 4 4 5 5 5 4 2 2 1 1 1 2 3 3 3 3 3 3 4 4 3 3 3 2 2 1 0 1 1 0 1 2
10 10 10 8 7 7 6 5 5 4 4 4 4 3 4 3 2 2 2 2 1 0 1 2 3 3 3 4 3 3 3 3 3 4 3 2 2 2 1 1 1 1 2
11 10 9 8 8 7 6 6 6 4 4 4 4 4 4 4 3 2 2 2 1 1 2 3 3 3 3 4 4 3 3 3 3 3 3 3 2 2 2 2 2 2 1
10 9 9 8 7 7 6 5 5 5 5 5 4 4 3 3 3 3 3 2 2 2 3 3 3 3 3 3 4 3 3 4 3 2 4 3 2 3 3 2 2 1 2
11 10 8 7 7 6 6 5 5 5 4 4 4 5 3 3 3 3 2 2 2 2 3 2 3 3 3 3 3 3 3 4 4 3 3 3 2 3 3 2 2 2 1
10 9 9 8 7 7 6 6 5 5 5 5 5 4 4 4 4 3 2 3 3 2 2 2 3 3 3 3 3 3 3 3 3 3 3 3 2 3 2 2 2 2 1
9 8 8 8 7 7 6 6 6 5 5 5 5 4 4 4 3 3 2 3 3 3 2 3 3 2 2 3 2 2 3 3 2 2 2 2 2 2 2 2 2 2 2
11 10 8 7 7 7 7 6 5 5 6 5 5 5 4 3 3 3 3 3 3 3 2 3 2 2 2 2 2 3 3 3 3 2 2 2 1 1 1 2 2 2 2
11 11 10 8 7 7 6 6 6 5 6 6 5 4 3 3 3 3 3 3 3 3 2 3 3 2 2 2 3 3 3 3 3 3 3 3 4 5 3 2 1 1 1
12 12 11 10 9 9 8 7 7 6 6 6 5 4 4 3 3 3 3 3 3 2 3 3 3 3 3 5 6 4 3 3 3 3 3 3 4 6 7 7 6 3 1
11 12 12 11 10 10 9 9 8 7 6 6 5 4 4 4 3 3 3 3 2 2 2 2 2 2 2 5 6 6 4 3 2 2 2 4 5 5 3 5 7 6 7
11 11 10 9 9 8 8 8 7 7 7 6 5 4 4 4 3 3 3 2 2 2 1 1 1 2 2 4 5 5 4 3 2 2 1 2 3 4 4 3 4 4 4
10 9 9 9 9 9 9 9 7 7 6 6 5 5 5 5 4 4 3 2 2 1 1 1 1 1 1 3 4 5 3 3 3 2 2 2 2 6 7 4 4 5 5
8 8 8 8 8 8 9 9 8 7 7 6 6 5 5 5 5 4 3 2 2 2 1 1 1 1 0 2 4 4 2 2 2 2 3 4 5 8 7 3 2 4 5
7 8 9 8 8 8 9 8 7 7 6 6 5 5 5 5 4 3 3 3 3 2 2 2 1 1 0 1 3 3 2 1 0 1 2 3 8 8 8 6 2 4 6
7 8 8 7 6 8 9 8 7 6 5 6 5 5 4 4 4 4 3 3 3 3 2 1 1 1 1 1 1 2 2 1 0 1 2 3 7 8 9 6 7 8 6
8 8 8 7 5 6 8 8 6 6 6 6 5 4 4 3 3 4 3 2 2 2 1 1 0 1 1 2 3 2 2 2 1 2 4 6 8 7 6 7 9 7 3
7 7 9 8 6 5 5 6 6 7 8 7 5 4 4 3 3 2 3 3 2 2 1 1 1 1 1 1 2 1 1 2 2 2 4 7 7 5 5 6 5 3 2
6 7 8 8 7 6 6 6 7 8 7 6 5 4 4 4 3 2 1 2 2 3 3 3 2 2 2 3 3 1 1 1 1 2 2 2 3 3 3 4 4 3 3
6 7 7 7 6 7 6 6 6 8 8 6 5 4 3 3 3 3 2 2 1 0 2 2 2 2 3 3 3 3 3 3 3 2 1 2 3 3 4 4 4 3 3
Wind_Direction
164 152 144 141 131 125 120 122 115 108 107 99 99 96 84 56 48 50 54 52 47 47 58 52 37 38 45 33 29 33 32 20 17 48 18 0 13 24 22 27 48 45 43
153 148 140 138 138 136 131 131 131 130 124 123 127 130 127 102 70 38 39 40 44 39 51 54 43 41 44 34 32 39 40 19 27 80 70 15 357 355 11 12 34 38 35
164 160 150 144 140 142 146 143 147 136 126 118 100 82 61 45 34 26 18 11 31 37 41 47 47 41 50 41 31 46 65 40 14 51 111 112 253 321 341 2 14 14 25
162 160 154 151 148 151 146 141 143 133 126 120 116 117 118 122 167 181 7 10 25 34 41 45 50 48 44 36 26 54 65 77 35 11 39 122 157 134 350 341 353 6 15
167 166 161 155 150 146 141 139 132 124 122 120 123 120 116 126 105 71 55 29 15 24 40 50 53 50 43 40 42 47 54 66 76 43 27 43 48 73 117 351 338 351 343
169 162 157 146 142 137 134 132 132 134 131 124 125 126 129 125 109 88 70 34 8 11 28 49 52 51 48 47 48 53 58 52 59 53 53 70 69 47 100 124 320 328 319
166 160 157 153 148 140 142 139 139 143 142 133 132 137 140 136 135 135 119 97 42 13 11 42 46 44 43 51 55 55 50 48 54 53 49 50 51 94 126 117 63 354 323
169 166 164 160 156 153 151 147 146 147 148 142 141 136 135 130 131 139 140 138 146 175 46 58 53 48 47 53 56 54 47 52 53 53 53 47 30 43 80 123 117 41 351
170 168 165 161 160 159 162 159 150 144 144 143 137 129 130 126 127 125 120 125 135 96 76 71 65 51 47 52 59 53 43 54 50 46 45 42 20 30 39 63 101 125 53
166 165 165 165 165 166 163 154 151 149 143 139 138 133 129 127 124 111 106 104 96 79 80 71 62 52 44 50 58 49 37 48 35 38 46 34 19 27 30 38 40 85 137
170 169 168 166 162 155 151 147 149 139 135 134 125 118 116 115 107 101 103 104 94 90 87 83 72 59 45 43 54 48 47 50 36 34 48 29 27 35 25 30 37 45 91
166 163 160 155 152 154 153 152 156 148 146 139 124 118 113 107 100 99 94 99 99 93 93 85 75 62 53 51 59 53 50 53 41 28 38 18 32 34 23 28 25 20 41
157 154 154 158 161 161 159 158 158 151 140 130 123 116 113 113 115 111 102 101 99 86 76 76 74 66 60 59 59 71 63 54 44 38 42 11 38 22 12 21 16 4 20
161 159 163 168 168 165 164 161 158 148 138 129 127 129 136 136 133 119 105 98 98 90 75 68 70 69 65 62 58 67 64 47 35 36 43 34 50 24 10 21 9 16 24
167 170 172 173 169 165 164 161 155 150 142 134 133 144 143 130 120 113 104 92 87 87 83 74 56 49 62 65 73 66 68 54 36 27 27 35 43 39 33 36 11 35 31
177 177 176 173 172 172 168 162 160 156 145 143 148 148 138 127 125 125 113 97 88 80 78 73 72 60 54 63 72 77 63 55 50 31 16 24 30 21 20 25 26 27 21
178 178 179 176 176 175 167 166 165 155 148 150 151 151 148 141 142 133 114 109 106 90 80 73 81 72 50 62 66 68 73 61 52 43 29 23 16 15 9 8 12 10 6
174 174 172 171 172 167 161 159 153 151 152 155 160 159 152 149 140 126 126 129 115 111 106 92 99 86 46 61 64 65 66 58 40 35 47 35 360 1 5 6 2 348 338
172 170 168 162 158 160 160 152 152 153 155 165 173 169 159 151 143 145 158 159 130 116 117 121 119 102 22 44 58 64 64 51 25 13 21 20 1 354 5 14 353 339 328
156 154 148 141 149 157 151 147 155 158 169 176 174 166 157 153 158 166 164 147 136 140 123 92 103 121 48 21 51 67 78 56 10 352 347 349 351 347 354 360 346 329 312
146 145 144 148 157 154 147 148 156 172 177 165 154 150 154 157 159 154 145 136 129 115 102 89 54 61 14 1 45 65 86 116 9 335 326 325 341 345 344 343 325 306 312
134 141 143 146 148 148 147 151 166 170 151 142 140 146 150 151 139 132 130 129 128 119 109 87 36 356 333 343 358 25 28 40 120 284 293 307 332 340 340 338 329 331 338
143 142 142 139 142 150 153 159 169 152 139 133 135 138 133 124 127 134 136 122 122 132 144 138 175 302 322 326 339 355 5 3 348 288 312 327 335 338 337 336 337 339 339
147 143 142 144 151 156 152 154 151 143 136 137 139 135 130 124 118 124 134 137 151 156 162 173 203 251 299 303 309 319 331 341 340 332 328 332 335 333 322 328 332 328 308
148 148 154 158 161 155 147 148 147 141 138 140 141 140 140 140 132 121 136 158 189 185 178 195 193 196 252 263 258 263 277 270 273 321 342 340 333 329 322 318 312 308 312
148 147 151 154 154 148 147 148 147 146 143 143 147 147 143 137 131 122 66 25 51 215 190 192 195 232 247 271 277 285 300 311 319 353 323 302 296 293 294 296 299 297 293